Home   Weather   Billings   Past weeks

Flag for USA Past Weather in Billings, Montana, USA — Yesterday and Last 2 Weeks

Now
12 °F

Passing clouds.


Feels Like: 6 °F
Forecast: 10 / 33 °F
Wind: 3 mph from South

Location: Billings Logan International Airport

Current Time: Dec 10, 2016 at 11:23:47 pm

Latest Report: Dec 10, 2016 at 10:53 pm


Visibility: 9 mi

Pressure: 29.95 "Hg (26.47 "Hg at 946m altitude)

Humidity: 84%

Dew Point: 8 °F

Location of BillingsLocation

Past Weather in Billings — Graph

°F

Billings Temperature Yesterday

Maximum temperature yesterday: 6 °F (at 1:53 pm)
Minimum temperature yesterday: 1 °F (at 5:53 am)
Average temperature yesterday: 3 °F

High & Low Weather Summary for the Past Weeks

 TemperatureHumidityPressure
High52 °F (Nov 26, 1:53 pm)96% (Dec 10, 8:53 pm)30.76 "Hg (Dec 10, 8:53 pm)
Low-3 °F (Dec 8, 6:53 am)22% (Nov 27, 3:53 pm)29.30 "Hg (Nov 27, 1:53 pm)
Average25 °F60%30.03 "Hg
* Reported Nov 25 9:53 pm — Dec 10 9:53 pm, Billings, Weather by CustomWeather, © 2016

Note: Actual official high and low records may vary slightly from our data, if they occured in-between our weather recording intervals... More about our weather records

Advertising

Billings Weather History for the Previous 24 Hours

Scroll right to see more
 ConditionsComfort  
Time TempWeatherWind HumidityBarometerVisibility
9:53 pm
Sat, Dec 10
10 °FClear.No wind88%29.93 "Hg10 mi
8:53 pm10 °FClear.3 mph96%29.93 "Hg10 mi
7:53 pm15 °FPassing clouds.6 mph91%29.90 "Hg10 mi
6:53 pm21 °FPassing clouds.13 mph88%29.87 "Hg10 mi
5:53 pm20 °FPassing clouds.21 mph85%29.86 "Hg10 mi
4:53 pm14 °FMostly cloudy.8 mph92%29.85 "Hg9 mi
4:01 pm14 °FMore clouds than sun.6 mph87%29.67 "Hg8 mi
2:53 pm14 °FLight snow. Ice fog.No wind84%29.83 "Hg1 mi
2:03 pm12 °FLight snow. Ice fog.6 mph88%29.62 "Hg2 mi
12:53 pm12 °FLight snow. Ice fog.3 mph88%29.82 "Hg1 mi
11:53 am14 °FLight snow. Mostly cloudy.No wind80%29.85 "Hg5 mi
10:53 am13 °FBroken clouds.5 mph84%29.90 "Hg10 mi
9:53 am10 °FMostly cloudy.8 mph88%29.94 "Hg10 mi
9:02 am9 °FLight snow. Ice fog.8 mph91%29.77 "Hg2 mi
8:01 am9 °FSnow. Ice fog.3 mph84%29.81 "Hg1 mi
7:04 am8 °FLight snow. Ice fog.No wind83%29.83 "Hg2 mi
6:53 am8 °FLight snow. Ice fog.No wind87%30.04 "Hg6 mi
5:53 am7 °FLight snow. Ice fog.3 mph87%30.06 "Hg4 mi
5:03 am7 °FLight snow. Ice fog.No wind83%29.89 "Hg2 mi
4:53 am7 °FLight snow. Ice fog.No wind83%30.10 "Hg2 mi
3:53 am7 °FOvercast.No wind83%30.14 "Hg10 mi
2:53 am6 °FLight snow. Ice fog.No wind87%30.17 "Hg1 mi
1:53 am6 °FLight snow. Ice fog.No wind87%30.19 "Hg1 mi
12:53 am6 °FLight snow. Ice fog.No wind83%30.22 "Hg1 mi
11:53 pm
Fri, Dec 9
5 °FLight snow. Ice fog.3 mph87%30.26 "Hg4 mi
Weather by CustomWeather, © 2016

See weather overviewHow to use our weather pages